User: anonymous   Login
Location: Unspecified
(0.0000°N, 0.0000°E)
Time: 09:28:01
(UTC+00:00)
Language:

Alouette 1 - Orbit

View from above orbital plane
View from above orbital plane
View from above satellite
View from above satellite

Ground track
Ground track

The orbit data is extracted from the following two-line orbital elements,

1 00424U 62049A   15185.55400109  .00000091  00000-0  93992-4 0  9991
2 00424 080.4672 252.6673 0024200 114.8493 354.9390 13.69018791633828
Epoch (UTC): 04 July 2015 13:17:45
Eccentricity: 0.0024200
inclination: 80.4672°
perigee height: 985 km
apogee height: 1021 km
right ascension of ascending node: 252.6673°
argument of perigee: 114.8493°
revolutions per day: 13.69018791
mean anomaly at epoch: 354.9390°
orbit number at epoch: 63382

The dashed part of the orbit path shows where the satellite is in the earth's shadow,  

DLR